Wind_Speed
11 11 10 9 8 7 5 5 5 5 2 2 5 8 11 13 13 13 12 13 14 14 14 14 14 13 12 11 10 9 8 7 7 7 6 6 6 6 6 6 5 5 4 4
13 13 12 11 10 9 8 7 6 6 5 3 3 6 7 11 12 12 11 12 12 12 13 13 13 13 12 11 10 9 8 7 6 6 6 6 6 6 6 6 5 5 5 4
15 14 13 13 12 11 10 9 6 6 6 6 6 8 7 7 9 10 9 9 9 9 10 11 11 12 12 11 10 10 9 7 6 6 6 6 6 6 5 5 5 5 4 4
18 17 16 16 16 14 12 10 9 8 8 7 8 12 9 7 8 9 9 9 8 7 8 9 10 11 11 11 10 10 9 8 7 6 6 6 5 5 5 5 4 4 4 4
20 20 19 18 17 17 15 13 11 9 10 10 9 11 10 8 7 8 9 8 8 6 6 8 9 9 10 10 10 10 9 9 7 6 6 5 5 5 5 5 4 4 4 4
22 21 20 19 18 18 17 13 12 11 12 14 11 11 13 10 10 10 8 7 7 6 6 6 7 7 8 9 9 9 9 8 8 7 6 6 6 5 5 5 5 4 4 4
23 22 21 20 19 18 17 14 13 13 13 13 10 10 13 13 11 10 9 8 7 7 6 5 6 7 7 7 8 8 8 8 7 7 6 6 6 6 6 6 6 5 5 6
21 21 21 22 22 21 20 17 15 14 13 14 12 10 11 14 12 11 10 9 9 8 8 7 6 6 7 7 7 7 7 7 7 6 6 6 6 6 6 6 6 6 6 7
21 21 21 22 23 22 20 19 16 16 16 15 13 11 12 14 13 12 11 11 10 10 9 8 7 7 7 7 7 7 7 7 7 6 6 6 6 6 6 7 7 7 7 7
23 22 21 22 24 23 21 19 19 20 18 16 14 14 13 14 13 12 13 12 11 10 10 9 7 7 8 8 7 7 7 7 8 7 7 6 6 6 6 7 7 8 8 8
27 24 21 22 25 23 22 22 22 21 19 16 15 16 14 15 13 14 16 14 12 11 11 10 9 7 8 8 8 8 7 8 8 8 8 7 7 7 7 7 7 7 8 8
29 27 23 23 23 24 24 23 22 22 22 20 17 17 13 15 15 16 16 15 13 12 11 10 10 10 10 10 10 9 9 9 9 9 9 8 8 8 7 7 7 8 9 10
30 29 26 23 24 23 24 24 22 21 21 20 19 20 18 17 17 18 17 15 14 14 13 12 12 13 12 12 11 11 10 10 10 10 11 10 10 9 9 8 8 9 9 10
33 33 31 26 23 24 24 24 23 23 23 22 21 21 21 19 19 19 19 17 17 16 15 14 14 14 14 14 13 13 12 12 11 11 12 10 11 10 10 9 9 9 10 11
35 35 34 31 26 24 25 24 25 26 25 23 21 23 25 24 22 20 20 19 18 17 16 16 16 16 16 15 15 15 14 13 13 13 12 12 12 12 11 11 11 11 11 12
36 36 35 34 30 25 25 26 25 26 27 25 23 23 27 27 23 22 21 20 20 19 19 18 18 18 18 17 17 16 16 15 14 14 14 14 14 14 13 13 13 14 14 13
36 36 36 35 32 30 30 27 26 26 26 27 27 28 28 27 27 25 23 21 22 22 21 20 19 19 20 20 19 18 18 17 17 17 17 16 16 16 16 15 15 15 15 16
36 37 36 35 33 35 31 29 28 28 28 28 29 30 30 29 27 26 26 25 25 24 23 23 22 21 21 21 21 21 21 20 19 19 19 19 18 18 17 17 17 17 17 18
36 36 36 35 34 34 31 30 30 30 30 29 30 31 31 30 29 28 28 27 26 25 25 25 24 24 23 24 24 23 22 22 22 21 21 20 20 18 18 18 18 18 19 19
36 36 36 35 34 33 31 30 30 31 33 32 32 32 31 31 30 30 29 29 28 26 26 26 26 26 25 25 24 24 24 23 22 22 23 22 20 19 19 19 20 21 21 21
36 37 37 35 34 34 30 30 29 31 33 33 34 34 33 33 32 31 30 30 29 28 27 27 26 27 26 26 25 25 25 24 24 24 24 23 22 22 22 22 22 23 23 23
38 38 38 36 35 34 30 30 31 30 31 33 34 33 33 32 32 32 31 31 30 29 28 27 27 27 27 27 27 26 26 26 25 25 25 24 23 23 24 25 25 25 25 25
38 38 38 39 39 37 34 34 34 33 33 33 33 33 33 33 32 32 31 31 31 30 29 29 28 28 28 28 27 28 28 27 27 27 27 26 26 26 26 26 27 26 26 27
39 39 40 41 41 40 37 36 35 35 35 35 35 34 35 34 33 32 32 31 31 31 30 30 29 29 28 29 28 28 28 28 28 29 28 28 28 28 28 27 27 27 27 27
38 39 40 41 41 41 41 38 37 37 37 36 36 35 35 35 34 32 32 31 31 30 30 30 29 29 29 29 29 29 29 29 30 29 29 29 29 28 28 28 28 29 29 29
39 40 41 41 40 40 39 38 38 38 37 37 36 36 35 36 34 32 32 32 31 31 30 30 30 29 29 29 29 29 30 30 30 30 30 29 29 30 30 30 30 30 30 31
Wind_Direction
207 209 207 208 216 224 233 252 277 305 335 352 348 354 358 6 10 16 25 29 30 32 35 36 36 37 37 37 36 37 39 40 43 48 51 51 55 63 67 68 69 69 71 79
213 219 218 214 216 224 240 253 246 264 300 305 340 342 343 349 355 3 13 22 23 28 32 32 32 33 33 34 34 35 36 37 41 45 46 46 48 55 58 61 61 57 60 58
219 222 221 220 228 231 236 246 249 267 281 284 297 307 304 327 337 344 356 10 20 26 29 27 26 28 30 31 31 31 30 32 33 35 37 40 46 51 50 51 50 44 47 48
222 223 224 223 226 231 236 236 242 254 269 280 279 284 293 305 325 330 341 351 5 17 21 20 21 21 24 28 29 27 25 25 29 31 34 38 40 39 35 31 27 28 34 33
222 224 224 225 226 231 231 233 238 245 258 265 272 288 289 289 305 321 324 335 341 352 9 13 12 15 17 20 22 23 26 27 25 25 28 31 31 29 22 15 12 14 14 9
219 224 225 225 226 230 229 230 241 247 252 256 260 279 287 292 298 307 313 319 324 330 349 356 357 4 9 13 15 17 22 26 26 26 26 24 24 23 18 12 7 6 3 4
221 222 225 226 226 226 227 231 246 251 249 255 259 269 282 290 298 299 302 303 310 312 320 331 345 347 353 1 6 9 11 14 17 20 23 21 18 17 18 15 10 6 358 356
225 228 228 227 222 222 224 223 236 250 258 263 255 254 274 286 289 286 291 294 299 302 306 311 324 330 333 342 350 355 357 1 1 3 8 9 10 9 12 14 9 6 358 353
221 230 233 234 232 230 225 219 226 248 259 263 256 254 252 268 274 272 279 287 289 292 295 298 304 315 318 324 333 340 342 345 348 350 352 353 353 355 358 1 359 358 356 353
214 223 226 233 237 231 223 222 225 233 244 251 250 249 248 256 269 281 289 290 283 285 292 298 297 309 311 315 319 325 330 332 333 335 339 342 343 340 344 348 348 348 349 349
216 223 225 229 234 233 224 219 221 229 233 248 258 256 252 266 271 276 277 275 276 281 284 293 295 299 306 310 310 314 317 320 325 329 328 330 331 329 330 339 345 343 343 344
218 221 224 226 232 233 230 227 223 228 231 233 255 267 256 268 273 274 277 272 273 275 280 285 287 291 295 302 304 305 308 312 314 317 318 317 319 324 324 327 333 332 332 335
220 221 223 226 229 235 234 229 224 229 238 239 245 259 259 259 263 271 274 272 270 273 274 276 278 282 286 292 297 299 299 302 303 304 309 309 313 316 319 319 322 325 330 330
221 222 219 220 226 230 236 232 225 222 228 237 242 253 258 256 258 266 271 272 268 270 274 274 277 280 282 286 290 292 291 294 295 296 297 298 303 308 309 312 318 321 325 327
223 224 222 218 221 227 234 234 230 226 224 230 241 250 255 259 257 261 266 266 266 270 269 271 276 278 277 278 282 286 286 288 289 289 291 295 297 299 299 302 307 310 313 316
225 225 225 222 219 224 230 234 234 233 229 228 234 245 251 255 257 259 260 263 266 266 268 268 272 276 277 276 278 280 280 281 284 287 288 289 292 293 290 294 298 301 304 306
227 226 227 226 223 226 230 230 232 233 233 231 233 240 248 254 257 260 261 263 265 266 267 268 269 272 275 278 277 276 277 278 280 283 284 285 286 287 286 286 291 295 298 299
228 227 229 229 228 230 230 232 233 235 234 233 235 238 245 250 254 258 258 259 262 265 266 267 269 272 272 274 276 276 278 279 281 282 283 283 281 283 283 283 286 291 291 294
230 230 230 230 232 235 232 232 233 235 235 234 236 240 242 247 252 255 256 258 261 262 264 266 268 270 271 272 273 274 277 280 280 281 283 284 283 282 282 281 283 287 289 289
231 230 230 230 231 235 235 234 236 237 238 235 236 240 242 246 252 254 255 257 259 261 262 263 265 266 269 271 270 272 276 278 279 280 281 284 282 281 282 283 284 286 286 286
231 230 229 229 231 233 235 235 234 238 239 238 239 242 243 246 249 254 257 258 260 260 261 262 264 266 266 266 268 271 273 276 277 278 278 281 280 279 281 282 283 284 285 286
232 233 231 229 231 234 233 233 233 236 239 241 242 243 244 247 249 252 255 257 258 259 260 262 264 267 268 266 267 270 272 274 275 277 279 279 278 280 280 280 281 282 282 284
230 231 233 231 231 232 232 235 235 237 239 243 245 245 247 248 250 253 255 255 256 258 260 262 265 267 267 267 266 268 271 274 275 276 278 278 278 278 280 282 283 284 284 285
229 230 232 233 233 233 233 234 236 238 241 244 246 247 249 251 250 251 253 254 256 257 260 263 264 265 265 265 266 267 269 272 273 275 277 278 279 279 280 280 284 286 286 287
228 228 230 232 231 233 236 235 236 239 243 246 248 250 250 250 251 252 254 255 255 256 258 262 264 263 264 265 266 266 268 269 272 274 277 278 278 279 280 282 284 285 286 287
228 228 231 233 234 235 236 237 238 241 244 246 247 248 249 250 251 251 253 254 255 256 258 260 262 263 263 265 266 267 268 269 271 274 276 277 278 279 280 281 282 283 285 287
Height
5906 5909 5911 5914 5916 5918 5919 5920 5921 5920 5918 5919 5918 5916 5914 5913 5911 5910 5908 5906 5905 5903 5902 5901 5900 5898 5897 5896 5895 5894 5893 5893 5892 5892 5891 5891 5891 5891 5891 5891 5890 5891 5891 5891
5905 5908 5910 5913 5914 5917 5919 5920 5920 5919 5918 5918 5917 5917 5916 5914 5913 5912 5910 5908 5907 5905 5904 5903 5902 5901 5899 5898 5897 5896 5895 5894 5894 5893 5893 5893 5893 5892 5892 5892 5892 5892 5892 5892
5903 5907 5909 5911 5913 5916 5917 5918 5918 5918 5918 5918 5918 5917 5915 5914 5913 5913 5912 5910 5909 5907 5906 5905 5904 5902 5901 5900 5899 5898 5897 5896 5895 5895 5894 5894 5894 5894 5893 5893 5893 5893 5893 5893
5900 5904 5906 5909 5912 5914 5916 5916 5917 5918 5919 5918 5918 5916 5914 5914 5913 5913 5912 5911 5909 5909 5908 5906 5905 5904 5903 5902 5901 5899 5898 5897 5897 5896 5896 5895 5895 5895 5894 5894 5894 5894 5894 5894
5897 5900 5903 5906 5909 5911 5913 5915 5916 5917 5917 5917 5916 5916 5914 5912 5912 5912 5911 5911 5910 5909 5908 5907 5906 5905 5904 5903 5902 5901 5900 5899 5898 5897 5897 5896 5896 5896 5895 5895 5895 5894 5894 5894
5893 5897 5900 5903 5906 5908 5910 5912 5913 5914 5915 5915 5916 5916 5913 5911 5911 5912 5912 5911 5911 5910 5909 5908 5907 5906 5905 5904 5903 5902 5901 5900 5899 5898 5898 5897 5897 5896 5896 5895 5895 5895 5894 5894
5888 5892 5896 5899 5902 5905 5907 5910 5911 5911 5912 5912 5913 5914 5913 5911 5911 5911 5911 5910 5910 5909 5909 5908 5907 5907 5906 5905 5904 5903 5902 5901 5900 5899 5898 5898 5897 5897 5896 5896 5895 5895 5894 5894
5885 5889 5892 5894 5896 5899 5902 5906 5909 5910 5911 5911 5911 5911 5913 5911 5910 5910 5910 5909 5909 5908 5908 5907 5906 5906 5906 5905 5904 5904 5903 5902 5901 5900 5899 5899 5898 5898 5897 5896 5896 5895 5895 5894
5883 5887 5889 5891 5893 5896 5898 5901 5907 5909 5909 5909 5909 5909 5910 5909 5908 5908 5908 5908 5907 5907 5907 5906 5906 5905 5905 5904 5904 5903 5903 5902 5901 5901 5900 5899 5899 5898 5897 5897 5896 5895 5895 5894
5877 5881 5884 5887 5888 5891 5895 5898 5903 5905 5905 5906 5906 5906 5906 5906 5906 5906 5906 5906 5906 5905 5905 5905 5904 5903 5904 5903 5903 5903 5902 5902 5901 5900 5900 5899 5898 5898 5897 5896 5896 5895 5894 5894
5872 5876 5879 5882 5883 5886 5890 5893 5896 5900 5901 5903 5902 5902 5900 5902 5903 5904 5904 5903 5903 5903 5903 5903 5902 5902 5902 5902 5902 5902 5902 5901 5901 5900 5899 5898 5897 5897 5896 5896 5895 5895 5894 5893
5865 5870 5873 5877 5879 5881 5885 5888 5892 5895 5897 5899 5900 5900 5897 5900 5900 5900 5900 5900 5900 5900 5901 5900 5900 5900 5901 5901 5900 5900 5900 5900 5899 5899 5898 5897 5896 5896 5895 5895 5894 5894 5893 5892
5859 5863 5867 5871 5876 5877 5879 5883 5887 5891 5894 5895 5898 5898 5895 5896 5896 5896 5896 5896 5897 5898 5898 5898 5898 5898 5898 5898 5898 5898 5898 5898 5897 5897 5896 5895 5895 5894 5894 5893 5893 5892 5891 5891
5852 5855 5860 5866 5870 5872 5874 5877 5881 5885 5888 5891 5893 5892 5891 5891 5892 5893 5893 5894 5894 5895 5895 5895 5895 5896 5896 5896 5896 5895 5895 5895 5895 5894 5894 5894 5893 5893 5892 5891 5891 5890 5890 5889
5844 5848 5853 5857 5862 5866 5869 5872 5875 5879 5882 5886 5888 5888 5886 5887 5887 5889 5889 5890 5890 5891 5892 5892 5892 5892 5892 5892 5892 5892 5891 5891 5891 5891 5891 5891 5890 5890 5889 5889 5889 5888 5887 5887
5835 5841 5845 5850 5855 5859 5863 5866 5870 5873 5876 5880 5883 5883 5881 5882 5882 5883 5885 5886 5886 5887 5888 5888 5889 5888 5888 5888 5888 5888 5888 5887 5887 5887 5887 5888 5887 5886 5886 5886 5886 5885 5885 5884
5827 5833 5837 5842 5848 5851 5855 5860 5864 5867 5870 5873 5876 5877 5875 5876 5877 5878 5879 5880 5881 5882 5883 5884 5885 5885 5884 5883 5883 5883 5883 5883 5883 5883 5882 5883 5883 5882 5882 5882 5882 5882 5881 5881
5820 5824 5829 5835 5840 5842 5850 5854 5857 5860 5863 5866 5868 5869 5869 5869 5871 5872 5874 5875 5876 5877 5878 5879 5879 5880 5880 5879 5879 5878 5878 5879 5879 5879 5878 5878 5878 5878 5878 5877 5877 5877 5877 5876
5812 5817 5822 5827 5831 5835 5841 5845 5848 5852 5854 5858 5860 5861 5862 5863 5865 5866 5867 5869 5870 5871 5872 5873 5873 5874 5874 5874 5874 5874 5874 5874 5874 5874 5873 5873 5872 5872 5872 5872 5872 5872 5872 5871
5804 5809 5814 5819 5823 5827 5834 5837 5840 5844 5845 5849 5851 5852 5855 5856 5858 5859 5861 5862 5863 5865 5866 5866 5867 5868 5868 5868 5869 5869 5869 5869 5869 5869 5868 5868 5867 5868 5867 5867 5867 5867 5866 5866
5795 5800 5805 5810 5814 5819 5824 5827 5831 5835 5837 5840 5842 5844 5847 5849 5850 5852 5853 5855 5856 5858 5859 5860 5861 5861 5862 5863 5863 5863 5864 5864 5864 5863 5863 5862 5862 5862 5862 5862 5861 5861 5860 5859
5787 5792 5796 5801 5806 5812 5816 5818 5821 5823 5826 5830 5833 5836 5839 5841 5842 5844 5846 5847 5849 5851 5852 5853 5854 5855 5855 5856 5856 5856 5857 5857 5857 5857 5857 5855 5855 5855 5855 5855 5855 5854 5853 5853
5777 5783 5788 5792 5797 5801 5805 5807 5811 5815 5818 5822 5824 5828 5830 5832 5834 5836 5838 5840 5841 5843 5845 5846 5847 5847 5848 5849 5849 5850 5850 5850 5850 5850 5850 5850 5849 5849 5848 5848 5848 5847 5846 5845
5767 5772 5777 5781 5785 5791 5794 5798 5802 5806 5810 5813 5816 5819 5821 5823 5825 5827 5829 5831 5833 5835 5837 5838 5839 5840 5841 5841 5842 5843 5843 5843 5843 5843 5843 5843 5842 5842 5841 5841 5840 5840 5839 5838
5756 5762 5766 5770 5776 5780 5783 5787 5792 5796 5800 5804 5807 5810 5812 5814 5816 5819 5821 5824 5826 5827 5829 5830 5831 5832 5833 5834 5834 5835 5835 5836 5836 5836 5836 5835 5835 5834 5834 5833 5833 5832 5832 5830
5746 5752 5756 5760 5766 5770 5774 5778 5783 5786 5790 5794 5797 5800 5803 5805 5806 5809 5812 5815 5817 5819 5820 5822 5823 5823 5825 5826 5827 5827 5828 5828 5828 5828 5828 5828 5827 5827 5826 5825 5825 5824 5823 5822